FW1987 Weather Reports


time (UTC)temp
F
wind
direction
speed
knots
gust
knots
rain 1hr
in
rain 24hr
in
rain mn
in
humidity
%
barometer
mb
20260503021515 56 342 0.0 0.0 0.00 0.00 0.00 68 1017.9
20260503020036 56 342 0.0 0.0 0.00 0.00 0.00 67 1018.0
20260503014507 57 343 0.0 0.0 0.00 0.00 0.00 67 1017.9
20260503013043 57 343 0.0 0.0 0.00 0.00 0.00 65 1017.9
20260503011604 58 343 0.0 0.0 0.00 0.00 0.00 66 1017.9
20260503010010 58 342 0.0 0.0 0.00 0.00 0.00 63 1018.1
20260503004515 58 342 0.0 0.0 0.00 0.00 0.00 63 1018.2
20260503003038 57 342 0.0 0.0 0.00 0.00 0.00 65 1018.2
20260503001601 57 342 0.0 0.0 0.00 0.00 0.00 64 1018.3
20260503000018 57 342 0.0 0.0 0.00 0.00 0.00 65 1018.4
20260502234538 57 342 0.0 0.0 0.00 0.00 0.00 67 1018.6
20260502233053 57 342 0.0 0.0 0.00 0.00 0.00 66 1018.7
20260502231519 58 342 0.0 0.0 0.00 0.00 0.00 66 1018.8
20260502230034 58 342 0.0 0.0 0.00 0.00 0.00 64 1018.8
20260502224600 59 342 0.0 0.0 0.00 0.00 0.00 62 1018.8
20260502223006 59 342 0.0 0.0 0.00 0.00 0.00 61 1018.9
20260502221534 60 342 0.0 0.0 0.00 0.00 0.00 60 1018.9
20260502220050 60 342 0.0 0.0 0.00 0.00 0.00 59 1019.0
20260502214526 61 342 0.0 0.0 0.00 0.00 0.00 59 1018.9
20260502213029 62 342 0.0 0.0 0.00 0.00 0.00 56 1018.9
20260502211554 62 342 0.0 0.0 0.00 0.00 0.00 55 1018.9
20260502210104 63 342 0.0 0.0 0.00 0.00 0.00 54 1019.0
20260502204533 63 342 0.0 0.0 0.00 0.00 0.00 54 1019.0
20260502203105 64 342 0.0 0.0 0.00 0.00 0.00 53 1019.1
20260502201511 64 342 0.0 0.0 0.00 0.00 0.00 51 1019.0
20260502200024 65 342 0.0 0.0 0.00 0.00 0.00 50 1019.1
20260502194559 66 342 0.0 0.0 0.00 0.00 0.00 49 1019.1
20260502193006 67 342 0.0 0.0 0.00 0.00 0.00 48 1019.1
20260502191531 68 342 0.0 0.0 0.00 0.00 0.00 47 1019.0
20260502190059 69 342 0.0 0.0 0.00 0.00 0.00 45 1018.9
20260502184520 69 342 0.0 0.0 0.00 0.00 0.00 44 1018.8
20260502183031 70 342 0.0 0.0 0.00 0.00 0.00 43 1018.7
20260502181548 71 342 0.0 0.0 0.00 0.00 0.00 42 1018.7
20260502180105 72 342 0.0 0.0 0.00 0.00 0.00 40 1018.6
20260502163115 76 11 0.0 2.6 0.00 0.00 0.00 35 1018.9
20260502161512 76 25 1.7 7.0 0.00 0.00 0.00 34 1019.1
20260502151522 77 355 0.9 7.0 0.00 0.00 0.00 33 1019.5
20260502123004 76 74 0.0 3.5 0.00 0.00 0.00 34 1021.5
20260502121531 76 9 0.0 5.2 0.00 0.00 0.00 33 1021.8
20260502120105 75 5 0.0 8.7 0.00 0.00 0.00 34 1021.9
20260502114506 75 35 0.0 0.9 0.00 0.00 0.00 34 1022.1
20260502113029 75 344 0.0 7.0 0.00 0.00 0.00 34 1022.4
20260502111543 74 350 0.0 5.2 0.00 0.00 0.00 35 1022.5
20260502110052 74 21 0.0 7.8 0.00 0.00 0.00 34 1022.7
20260502104518 73 57 0.9 7.8 0.00 0.00 0.00 35 1022.9
20260502103030 74 340 1.7 5.2 0.00 0.00 0.00 34 1023.1
20260502101603 73 333 0.9 7.0 0.00 0.00 0.00 35 1023.3
20260502091517 72 344 0.0 4.3 0.00 0.00 0.00 38 1023.8
20260502070110 60 61 0.0 0.0 0.00 0.00 0.00 56 1024.6
20260502064519 59 61 0.0 0.0 0.00 0.00 0.00 59 1024.6
20260502063040 58 70 0.0 0.0 0.00 0.00 0.00 60 1024.8
20260502061551 57 64 0.0 0.9 0.00 0.00 0.00 60 1024.7
20260502060013 56 16 0.0 0.0 0.00 0.00 0.00 62 1024.8
20260502054506 54 16 0.0 0.0 0.00 0.00 0.00 64 1024.7
20260502053018 53 15 0.0 0.0 0.00 0.00 0.00 67 1024.8
20260502051536 52 15 0.0 0.0 0.00 0.00 0.00 68 1024.8
20260502050048 51 355 0.0 0.0 0.00 0.00 0.00 70 1024.8
20260502044508 49 355 0.0 0.0 0.00 0.00 0.00 72 1024.7
20260502043027 49 355 0.0 0.0 0.00 0.00 0.00 72 1024.8
20260502041553 49 355 0.0 0.0 0.00 0.00 0.00 72 1024.7
20260502040002 49 355 0.0 0.0 0.00 0.00 0.00 72 1024.7
20260502034521 49 355 0.0 0.0 0.00 0.00 0.00 72 1024.7
20260502033033 49 355 0.0 0.0 0.00 0.00 0.00 72 1024.6
20260502031555 50 355 0.0 0.0 0.00 0.00 0.00 71 1024.6
20260502030010 50 355 0.0 0.0 0.00 0.00 0.00 69 1024.7
20260502024531 51 355 0.0 0.0 0.00 0.00 0.00 68 1024.7
20260502023055 51 355 0.0 0.0 0.00 0.00 0.00 66 1024.7